Location: Mascot Post Office (historical)
(40.2645°N, 99.5462°W)
Time: 17:22:05
(UTC+00:00)

Nadezhda 4 Rocket - Pass Details

Date: 14 July 2020
Orbit: 951 x 991 km, 82.9° (Epoch: 04 August)

Event Time Altitude Azimuth Distance (km) Brightness Sun altitude
Rises 10:05:05 0° 354° (N) 3,710 7.6 -12.5°
Reaches altitude 10° 10:07:37 10° 356° (N) 2,760 6.9 -12.1°
Maximum altitude 10:13:58 76° 82° (E) 1,022 4.3 -11.2°
Drops below altitude 10° 10:20:16 10° 168° (SSE) 2,740 6.1 -10.3°
Sets 10:22:47 0° 170° (S) 3,682 6.7 -10.0°
